Tracking 18844 objects as of 21-Nov-2017
HD Live streaming from Space Station
objects crossing your sky now

HAIYANG 1

Track HAIYANG 1 now!
10-day predictions
HAIYANG 1 is classified as:


NORAD ID: 27430
Int'l Code: 2002-024A
Perigee: 790.0 km
Apogee: 801.8 km
Inclination: 98.3 °
Period: 100.6 minutes
Semi major axis: 7166 km
RCS: 1.302 m2 (large)
Launch date: May 15, 2002
Source: People's Republic of China (PRC)
Launch site: Taiyaun Space Center, China (TSC)

China's first satellite for marine observation.
aabbcc
Your satellite tracking list
Your tracking list is empty




NASA's NSSDC Master Catalog

Two Line Element Set (TLE):
1 27430U 02024A   17324.92742833  .00000056  00000-0  36958-4 0  9995
2 27430  98.3100 298.0494 0008227 323.7784  36.2842 14.30893219810158
Source of the keplerian elements: AFSPC